Preview of NWS' New Version of Forecast
This preview is not operational and should not be used for support decisions.

Regional Weather Roundup (RWR)

Issued by Gray - Portland, ME (GYX)

                            
000
ASUS41 KGYX 241005
RWRGYX
WEATHER ROUNDUP FOR MAINE AND NEW HAMPSHIRE
NATIONAL WEATHER SERVICE GRAY ME
600 AM EDT FRI MAY 24 2019

MEZ002-005-006-010-012-015-018-020-021-024-026-027-029-241100-
MAINE
  
CITY           SKY/WX    TMP DP  RH WIND       PRES   REMARKS
PORTLAND       FAIR      56  53  90 W7        29.55S                  
SANFORD        FAIR      57  53  86 W10       29.58R                  
BAR HARBOR     LGT RAIN  47  46  97 NE6       29.55F FOG              
WISCASSET      FOG       52  52 100 CALM      29.56R VSB 1/2          
ROCKLAND       FOG       47  47 100 NE6       29.56R VSB 1/4          
FRYEBURG       MOCLDY    57  54  89 SE3       29.57R                  
LEWISTONAUBURN FOG       52  52 100 NW3       29.55S VSB 1/4          
AUGUSTA        FOG       50  50 100 CALM      29.56S VSB 1/4          
WATERVILLE     LGT RAIN  48  48 100 NE6       29.54R FOG              
BANGOR         LGT RAIN  48  46  93 NE8       29.57S                  
GREENVILLE       N/A     45  42  89 E10       29.59R                  
MILLINOCKET    LGT RAIN  47  44  90 NE12      29.66R                  
HOULTON        RAIN      47  44  90 E10G18    29.72R FOG              
PRESQUE ISLE   RAIN      48  46  93 NE7       29.78R                  
FRENCHVILLE    LGT RAIN  50  44  80 NE8       29.79R                  
CARIBOU        LGT RAIN  49  45  86 NE7       29.78R                  
$$

NHZ002-005-008-009-011-012-014-241100-
NEW HAMPSHIRE
  
CITY           SKY/WX    TMP DP  RH WIND       PRES   REMARKS
PORTSMOUTH     PTCLDY    57  55  95 SW9       29.57S                  
ROCHESTER      FAIR      55  52  89 VRB3      29.59R                  
NASHUA         FAIR      59  56  89 VRB5      29.64R                  
MANCHESTER     FAIR      58  54  86 CALM      29.63R                  
CONCORD        MOCLDY    55  52  89 CALM      29.63R                  
LACONIA        CLOUDY    57  53  86 SW7       29.61R                  
PLYMOUTH       RAIN      57  53  86 CALM      29.61R                  
BERLIN         NOT AVBL                                               
WHITEFIELD     RAIN      56  52  86 W10G17    29.61R                  
JAFFREY        FAIR      55  51  86 S6        29.68R                  
KEENE          FAIR      51  51 100 S6        29.67R                  
LEBANON        CLOUDY    59  51  75 W3        29.66R                  
MT WASHINGTON  SHOWER    39  39 100 W64G84      N/A  VSB 0            
$$

VTZ005-007-008-241100-
VERMONT
  
CITY           SKY/WX    TMP DP  RH WIND       PRES   REMARKS
ST JOHNSBURY     N/A     57  55  93 MISG      29.61R                  
MONTPELIER     CLOUDY    55  51  86 NW16G29   29.70R                  
BURLINGTON     LGT RAIN  55  52  89 NW21G26   29.73R FOG              
$$

MAZ007-012-024-CTZ003-RIZ002-NYZ038-NYZ072-241100-
SOUTHERN NEW ENGLAND AND NY
  
CITY           SKY/WX    TMP DP  RH WIND       PRES   REMARKS
BOSTON         FAIR      64  54  69 W17G31    29.62S                  
WORCESTER      FAIR      56  51  84 W18G24    29.68R                  
NANTUCKET      MOCLDY    54  54 100 W14       29.68R FOG              
PROVIDENCE     FAIR      60  54  80 W9        29.69S                  
HARTFORD       FAIR      62  50  64 W10       29.74R                  
ALBANY         MOCLDY    59  48  67 W14G30    29.78S                  
NEW YORK CITY  FAIR      67  54  63 NW18      29.81R                  
$$

ANZ081-ANZ082-ANZ150-NHZ014-MEZ023>029-241100-
COASTAL MARINE OBSERVATIONS
  
STATION/POSITION TIME  TEMP    WIND        PRES    WAVE
                       AIR SEA DIR/SP/G            HT/PER
                 (UTC) (F)     (DEG/KT/KT) (MB)    (FT/S)
ISLE OF SHOALS   0900   59     250/ 19/ 20 1001.0F
JEFFREYS LEDGE   0938      47                N/A     4/ 7
GEORGES BANK BUO 0940   53 44  200/ 23/ 33 1006.2F
$$

.............KEY..............
   WCI - WIND CHILL
   TC  - TEMPERATURE IN CELSIUS
   VSB - VISIBILITY IN MILES
   HX  - HEAT INDEX
   FAIR- INDICATES FEW OR NO CLOUDS BELOW 12,000 FT, WITH NO 
         SIGNIFICANT WEATHER AND/OR OBSTRUCTIONS TO VISIBILITY.